TimeCST,TemperatureF,Dew PointF,Humidity,Sea Level PressureIn,VisibilityMPH,Wind Direction,Wind SpeedMPH,Gust SpeedMPH,PrecipitationIn,Events,Conditions,WindDirDegrees,DateUTC
12:15 AM,39.2,26.6,61,29.80,10.0,SSE,11.5,16.1,N/A,,Clear,150,2013-02-18 06:15:00
12:35 AM,39.2,26.6,61,29.79,10.0,SE,11.5,-,N/A,,Clear,140,2013-02-18 06:35:00
12:55 AM,39.2,26.6,61,29.79,10.0,SSE,9.2,-,N/A,,Clear,150,2013-02-18 06:55:00
1:15 AM,39.2,28.4,65,29.78,10.0,SSE,9.2,-,N/A,,Clear,150,2013-02-18 07:15:00
1:35 AM,39.2,28.4,65,29.76,10.0,SSE,9.2,-,N/A,,Clear,150,2013-02-18 07:35:00
1:55 AM,39.2,28.4,65,29.76,10.0,SSE,9.2,-,N/A,,Clear,160,2013-02-18 07:55:00
2:15 AM,39.2,28.4,65,29.75,10.0,SSE,9.2,-,N/A,,Clear,160,2013-02-18 08:15:00
2:35 AM,41.0,28.4,61,29.74,10.0,SSE,9.2,-,N/A,,Clear,160,2013-02-18 08:35:00
2:55 AM,41.0,28.4,61,29.73,10.0,SSE,8.1,-,N/A,,Clear,160,2013-02-18 08:55:00
3:15 AM,42.8,28.4,57,29.72,10.0,SSE,8.1,-,N/A,,Clear,150,2013-02-18 09:15:00
3:35 AM,42.8,30.2,61,29.71,10.0,SSE,8.1,-,N/A,,Clear,160,2013-02-18 09:35:00
3:55 AM,42.8,30.2,61,29.70,10.0,SSE,6.9,-,N/A,,Clear,160,2013-02-18 09:55:00
4:15 AM,42.8,30.2,61,29.69,10.0,SSE,10.4,-,N/A,,Clear,160,2013-02-18 10:15:00
4:35 AM,42.8,30.2,61,29.68,10.0,SSE,8.1,-,N/A,,Clear,150,2013-02-18 10:35:00
4:55 AM,42.8,30.2,61,29.67,10.0,SSE,9.2,-,N/A,,Clear,160,2013-02-18 10:55:00
5:15 AM,44.6,30.2,57,29.67,10.0,South,9.2,-,N/A,,Clear,170,2013-02-18 11:15:00
5:35 AM,44.6,30.2,57,29.66,10.0,South,9.2,-,N/A,,Clear,170,2013-02-18 11:35:00
5:55 AM,44.6,30.2,57,29.66,10.0,South,10.4,17.3,N/A,,Clear,170,2013-02-18 11:55:00
6:15 AM,46.4,30.2,53,29.65,10.0,South,10.4,16.1,N/A,,Clear,170,2013-02-18 12:15:00
6:35 AM,46.4,30.2,53,29.65,10.0,South,9.2,-,N/A,,Clear,170,2013-02-18 12:35:00
6:55 AM,46.4,30.2,53,29.64,10.0,South,9.2,-,N/A,,Clear,180,2013-02-18 12:55:00
7:15 AM,46.4,30.2,53,29.64,10.0,South,12.7,18.4,N/A,,Clear,180,2013-02-18 13:15:00
7:35 AM,46.4,30.2,53,29.64,10.0,South,13.8,21.9,N/A,,Clear,190,2013-02-18 13:35:00
7:55 AM,48.2,32.0,54,29.64,10.0,South,18.4,24.2,N/A,,Clear,180,2013-02-18 13:55:00
8:15 AM,50.0,32.0,50,29.64,10.0,South,17.3,23.0,N/A,,Clear,190,2013-02-18 14:15:00
8:35 AM,50.0,32.0,50,29.64,10.0,South,17.3,25.3,N/A,,Clear,190,2013-02-18 14:35:00
8:55 AM,51.8,33.8,50,29.64,10.0,South,15.0,21.9,N/A,,Clear,190,2013-02-18 14:55:00
9:15 AM,51.8,33.8,50,29.64,10.0,South,17.3,26.5,N/A,,Clear,190,2013-02-18 15:15:00
9:35 AM,51.8,33.8,50,29.63,10.0,South,17.3,25.3,N/A,,Clear,190,2013-02-18 15:35:00
9:55 AM,53.6,35.6,51,29.62,10.0,SSW,15.0,24.2,N/A,,Scattered Clouds,200,2013-02-18 15:55:00
10:15 AM,55.4,35.6,47,29.61,10.0,SSW,16.1,24.2,N/A,,Scattered Clouds,200,2013-02-18 16:15:00
10:35 AM,55.4,35.6,47,29.61,10.0,SSW,15.0,23.0,N/A,,Mostly Cloudy,200,2013-02-18 16:35:00
10:55 AM,57.2,37.4,48,29.60,10.0,SSW,15.0,24.2,N/A,,Overcast,210,2013-02-18 16:55:00
11:15 AM,57.2,37.4,48,29.60,10.0,SSW,23.0,28.8,N/A,,Overcast,210,2013-02-18 17:15:00
11:35 AM,57.2,37.4,48,29.59,10.0,SSW,15.0,29.9,N/A,,Overcast,200,2013-02-18 17:35:00
11:55 AM,57.2,37.4,48,29.59,10.0,SSW,16.1,23.0,N/A,,Overcast,200,2013-02-18 17:55:00
12:15 PM,57.2,39.2,51,29.58,10.0,SSW,23.0,28.8,N/A,,Overcast,210,2013-02-18 18:15:00
12:35 PM,57.2,39.2,51,29.57,10.0,SSW,19.6,25.3,N/A,,Overcast,200,2013-02-18 18:35:00
12:55 PM,55.4,39.2,54,29.56,10.0,SSW,15.0,24.2,N/A,,Overcast,200,2013-02-18 18:55:00
1:15 PM,55.4,39.2,54,29.55,10.0,South,12.7,21.9,N/A,Rain,Light Rain,180,2013-02-18 19:15:00
1:35 PM,53.6,42.8,67,29.54,5.0,SSW,9.2,-,0.01,Rain,Rain,210,2013-02-18 19:35:00
1:55 PM,51.8,42.8,71,29.52,10.0,SW,5.8,-,0.03,Rain,Light Rain,230,2013-02-18 19:55:00
2:15 PM,50.0,42.8,76,29.51,10.0,Calm,Calm,-,0.02,Rain,Rain,0,2013-02-18 20:15:00
2:35 PM,51.8,42.8,71,29.51,7.0,Calm,Calm,-,0.08,Rain,Rain,0,2013-02-18 20:35:00
2:55 PM,50.0,42.8,76,29.51,10.0,NW,8.1,-,0.18,Rain,Rain,320,2013-02-18 20:55:00
3:15 PM,41.0,33.8,76,29.53,3.0,NNW,12.7,24.2,0.15,Rain,Rain,340,2013-02-18 21:15:00
3:35 PM,39.2,33.8,81,29.52,3.0,NNW,16.1,23.0,0.22,Rain,Rain,340,2013-02-18 21:35:00
3:55 PM,39.2,33.8,81,29.54,3.0,NW,16.1,26.5,0.25,Rain,Rain,320,2013-02-18 21:55:00
4:15 PM,39.2,32.0,75,29.55,2.0,NW,19.6,28.8,0.09,Rain,Rain,320,2013-02-18 22:15:00
4:35 PM,35.6,28.4,75,29.58,1.2,NW,13.8,19.6,0.13,Snow,Light Snow,320,2013-02-18 22:35:00
5:15 PM,35.6,28.4,75,29.60,1.5,NW,12.7,16.1,N/A,Snow,Light Snow,320,2013-02-18 23:15:00
5:35 PM,35.6,28.4,75,29.62,2.5,NW,16.1,-,0.02,Snow,Light Snow,310,2013-02-18 23:35:00
5:55 PM,33.8,28.4,81,29.65,2.5,NW,19.6,28.8,0.03,Snow,Light Snow,310,2013-02-18 23:55:00
6:15 PM,35.6,28.4,75,29.67,10.0,NW,16.1,28.8,0.01,,Overcast,320,2013-02-19 00:15:00
6:35 PM,33.8,28.4,81,29.69,10.0,NW,21.9,31.1,0.01,,Overcast,310,2013-02-19 00:35:00
6:55 PM,33.8,26.6,75,29.71,10.0,NW,19.6,29.9,0.01,,Overcast,320,2013-02-19 00:55:00
7:15 PM,33.8,26.6,75,29.72,10.0,NW,23.0,32.2,N/A,,Overcast,320,2013-02-19 01:15:00
7:35 PM,33.8,24.8,70,29.73,10.0,NW,16.1,25.3,N/A,,Overcast,310,2013-02-19 01:35:00
7:55 PM,32.0,24.8,75,29.75,10.0,NW,18.4,28.8,N/A,,Overcast,310,2013-02-19 01:55:00
8:15 PM,32.0,23.0,69,29.76,10.0,WNW,16.1,24.2,N/A,,Overcast,300,2013-02-19 02:15:00
8:35 PM,32.0,21.2,64,29.76,10.0,WNW,21.9,32.2,N/A,,Overcast,300,2013-02-19 02:35:00
8:55 PM,30.2,21.2,69,29.78,10.0,WNW,26.5,35.7,N/A,,Overcast,290,2013-02-19 02:55:00
9:15 PM,30.2,21.2,69,29.80,10.0,WNW,11.5,27.6,N/A,,Overcast,300,2013-02-19 03:15:00
9:35 PM,30.2,19.4,64,29.81,10.0,WNW,19.6,24.2,N/A,,Overcast,290,2013-02-19 03:35:00
9:55 PM,28.4,19.4,69,29.82,10.0,WNW,21.9,29.9,N/A,,Overcast,300,2013-02-19 03:55:00
10:15 PM,28.4,19.4,69,29.83,10.0,WNW,13.8,21.9,N/A,,Overcast,290,2013-02-19 04:15:00
10:35 PM,28.4,17.6,64,29.83,10.0,WNW,21.9,31.1,N/A,,Overcast,300,2013-02-19 04:35:00
10:55 PM,26.6,17.6,69,29.85,10.0,WNW,19.6,29.9,N/A,,Mostly Cloudy,290,2013-02-19 04:55:00
11:15 PM,26.6,15.8,64,29.86,10.0,WNW,17.3,27.6,N/A,,Scattered Clouds,290,2013-02-19 05:15:00
11:35 PM,26.6,15.8,64,29.87,10.0,WNW,13.8,23.0,N/A,,Mostly Cloudy,290,2013-02-19 05:35:00
11:55 PM,26.6,15.8,64,29.88,10.0,West,11.5,19.6,N/A,,Overcast,280,2013-02-19 05:55:00